DKH1527 ZJSY-ZMCK

Flight info

Callsign DKH1527
Flight time N/A
Altitude 29100
Route PORAP W222 SAMAS A202 SIKOU J104 CHALI BEKOL A461 BUBDA W56 OBMEP B208 NIXAL V674 UDA
Aircraft A320/M-SDE3FGHIRWY/LB1

Departure

Time N/A
Airport Sanya Phoenix International Airport (ZJSY)

Arrival

Time 2026-04-18 06:55
Airport Ulaanbaatar Chinggis Khaan International Airport (ZMCK)
Time Latitude Longitude Altitude Speed Heading
2026-04-18 04:51 35.32277 113.52619 35109 ft 430 kts 333°
2026-04-18 04:52 35.35089 113.51367 35107 ft 430 kts 333°
2026-04-18 04:52 35.40715 113.48866 35103 ft 430 kts 334°
2026-04-18 04:53 35.46340 113.46363 35112 ft 430 kts 333°
2026-04-18 04:53 35.51968 113.43868 35116 ft 430 kts 334°
2026-04-18 04:54 35.57601 113.41376 35120 ft 430 kts 334°
2026-04-18 04:54 35.63222 113.38879 35119 ft 429 kts 334°
2026-04-18 04:55 35.68838 113.36382 35125 ft 429 kts 334°
2026-04-18 04:55 35.74453 113.33872 35123 ft 429 kts 334°
2026-04-18 04:56 35.82834 113.30123 35122 ft 429 kts 334°
2026-04-18 04:56 35.88476 113.27590 35118 ft 429 kts 334°
2026-04-18 04:57 35.94051 113.25101 35119 ft 429 kts 334°
2026-04-18 04:57 35.99664 113.22595 35117 ft 429 kts 334°
2026-04-18 04:58 36.05268 113.20089 35108 ft 428 kts 334°
2026-04-18 04:58 36.10869 113.17571 35105 ft 428 kts 334°
2026-04-18 04:59 36.16468 113.15047 35102 ft 428 kts 334°
2026-04-18 04:59 36.22061 113.12537 35100 ft 428 kts 334°
2026-04-18 05:00 36.27794 113.10429 35096 ft 431 kts 339°
2026-04-18 05:00 36.33599 113.08543 35093 ft 431 kts 339°
2026-04-18 05:01 36.39393 113.06658 35077 ft 430 kts 339°
2026-04-18 05:01 36.45187 113.04785 35077 ft 430 kts 340°
2026-04-18 05:02 36.50979 113.02903 35081 ft 430 kts 340°
2026-04-18 05:02 36.56767 113.01020 35073 ft 430 kts 340°
2026-04-18 05:03 36.62549 112.99130 35073 ft 429 kts 340°
2026-04-18 05:03 36.68322 112.97232 35073 ft 429 kts 340°
2026-04-18 05:04 36.74056 112.95357 35075 ft 429 kts 340°
2026-04-18 05:04 36.79827 112.93463 35073 ft 429 kts 340°
2026-04-18 05:05 36.85594 112.91566 35073 ft 428 kts 340°
2026-04-18 05:05 36.91359 112.89670 35072 ft 428 kts 340°
2026-04-18 05:06 36.97112 112.87775 35072 ft 428 kts 340°
2026-04-18 05:06 37.02864 112.85872 35071 ft 427 kts 340°
2026-04-18 05:07 37.08612 112.83973 35069 ft 427 kts 340°
2026-04-18 05:07 37.14357 112.82076 35063 ft 427 kts 340°
2026-04-18 05:08 37.20098 112.80171 35067 ft 426 kts 340°
2026-04-18 05:08 37.25795 112.78284 35060 ft 426 kts 341°
2026-04-18 05:09 37.31523 112.76391 35057 ft 426 kts 341°
2026-04-18 05:09 37.37243 112.74487 35053 ft 425 kts 341°
2026-04-18 05:10 37.42959 112.72583 35053 ft 424 kts 341°
2026-04-18 05:10 37.48659 112.70681 35040 ft 424 kts 341°
2026-04-18 05:11 37.54352 112.68780 35042 ft 423 kts 341°
2026-04-18 05:11 37.60039 112.66879 35036 ft 422 kts 341°
2026-04-18 05:12 37.65714 112.64976 35037 ft 421 kts 341°
2026-04-18 05:12 37.71377 112.63073 35035 ft 421 kts 341°
2026-04-18 05:13 37.77052 112.61257 35036 ft 421 kts 343°
2026-04-18 05:13 37.82810 112.59859 35040 ft 422 kts 346°
2026-04-18 05:14 37.88597 112.58613 35039 ft 421 kts 346°
2026-04-18 05:14 37.94361 112.57326 35039 ft 420 kts 346°
2026-04-18 05:15 38.00107 112.55986 35038 ft 419 kts 345°
2026-04-18 05:15 38.05838 112.54622 35041 ft 419 kts 345°
2026-04-18 05:16 38.11565 112.53268 35044 ft 418 kts 346°
2026-04-18 05:16 38.17245 112.51934 35036 ft 418 kts 346°
2026-04-18 05:17 38.22965 112.50593 35037 ft 417 kts 346°
2026-04-18 05:17 38.28673 112.49253 35035 ft 417 kts 346°
2026-04-18 05:18 38.34371 112.47912 35033 ft 417 kts 346°
2026-04-18 05:18 38.40068 112.46559 35033 ft 416 kts 346°
2026-04-18 05:19 38.45760 112.45208 35032 ft 416 kts 346°
2026-04-18 05:19 38.51445 112.43851 35030 ft 416 kts 346°
2026-04-18 05:20 38.57125 112.42492 35034 ft 415 kts 345°
2026-04-18 05:20 38.62799 112.41125 35038 ft 415 kts 345°
2026-04-18 05:21 38.68463 112.39761 35041 ft 414 kts 346°
2026-04-18 05:21 38.74109 112.38404 35018 ft 412 kts 347°
2026-04-18 05:22 38.79742 112.37043 35045 ft 411 kts 347°
2026-04-18 05:22 38.85360 112.35676 35044 ft 410 kts 347°
2026-04-18 05:23 38.90964 112.34323 35047 ft 409 kts 347°
2026-04-18 05:23 38.96561 112.32973 35041 ft 409 kts 347°
2026-04-18 05:24 39.02143 112.31612 35035 ft 408 kts 347°
2026-04-18 05:24 39.07725 112.30246 35027 ft 408 kts 347°
2026-04-18 05:25 39.13301 112.28873 35023 ft 408 kts 347°
2026-04-18 05:25 39.18873 112.27522 35016 ft 407 kts 347°
2026-04-18 05:26 39.24446 112.26163 35013 ft 407 kts 346°
2026-04-18 05:26 39.29976 112.24809 35014 ft 407 kts 346°
2026-04-18 05:27 39.35536 112.23439 35011 ft 407 kts 346°
2026-04-18 05:27 39.41093 112.22070 35010 ft 406 kts 346°
2026-04-18 05:28 39.46642 112.20713 35008 ft 406 kts 346°
2026-04-18 05:28 39.52194 112.19355 35001 ft 406 kts 346°
2026-04-18 05:29 39.57750 112.18008 35000 ft 406 kts 346°
2026-04-18 05:29 39.63316 112.16669 34997 ft 406 kts 346°
2026-04-18 05:30 39.68878 112.15325 34997 ft 406 kts 346°
2026-04-18 05:30 39.74435 112.13971 34995 ft 407 kts 346°
2026-04-18 05:31 39.80001 112.12621 34985 ft 407 kts 346°
2026-04-18 05:31 39.85535 112.11278 34982 ft 407 kts 346°
2026-04-18 05:32 39.91109 112.09924 34980 ft 408 kts 346°
2026-04-18 05:32 39.96689 112.08570 34976 ft 408 kts 345°
2026-04-18 05:33 40.02272 112.07203 34975 ft 409 kts 345°
2026-04-18 05:33 40.07864 112.05827 34970 ft 409 kts 345°
2026-04-18 05:34 40.13458 112.04451 34969 ft 409 kts 345°
2026-04-18 05:34 40.19057 112.03073 34964 ft 409 kts 345°
2026-04-18 05:35 40.24659 112.01695 34962 ft 410 kts 345°
2026-04-18 05:35 40.30264 112.00311 34960 ft 410 kts 345°
2026-04-18 05:36 40.35878 111.98917 34958 ft 411 kts 345°
2026-04-18 05:36 40.41497 111.97545 34953 ft 411 kts 345°
2026-04-18 05:37 40.47143 111.96278 34955 ft 412 kts 346°
2026-04-18 05:37 40.52797 111.95054 34947 ft 412 kts 346°
2026-04-18 05:38 40.58420 111.93819 34944 ft 412 kts 345°
2026-04-18 05:38 40.64074 111.92528 34937 ft 412 kts 344°
2026-04-18 05:39 40.69672 111.90945 34933 ft 411 kts 342°
2026-04-18 05:39 40.75214 111.89116 34927 ft 410 kts 339°
2026-04-18 05:40 40.79773 111.87282 34929 ft 409 kts 338°
2026-04-18 05:40 40.86078 111.84648 34929 ft 409 kts 338°
2026-04-18 05:41 40.90644 111.82814 34929 ft 410 kts 338°
2026-04-18 05:41 40.96107 111.80661 34935 ft 410 kts 338°
2026-04-18 05:42 41.01536 111.78522 34938 ft 410 kts 338°
2026-04-18 05:42 41.07005 111.76345 34941 ft 410 kts 338°
2026-04-18 05:43 41.12475 111.74174 34941 ft 410 kts 338°
2026-04-18 05:43 41.17942 111.71998 34943 ft 410 kts 338°
2026-04-18 05:44 41.23413 111.69803 34934 ft 411 kts 338°
2026-04-18 05:44 41.28889 111.67614 34922 ft 411 kts 338°
2026-04-18 05:45 41.34371 111.65415 34909 ft 412 kts 338°
2026-04-18 05:45 41.39854 111.63220 34901 ft 412 kts 338°
2026-04-18 05:46 41.45342 111.61015 34888 ft 412 kts 337°
2026-04-18 05:46 41.50830 111.58790 34874 ft 413 kts 337°
2026-04-18 05:47 41.56329 111.56560 34867 ft 413 kts 337°
2026-04-18 05:47 41.61834 111.54337 34848 ft 414 kts 337°
2026-04-18 05:48 41.67348 111.52109 34834 ft 414 kts 337°
2026-04-18 05:48 41.72862 111.49874 34834 ft 414 kts 337°
2026-04-18 05:49 41.78388 111.47632 34822 ft 415 kts 337°
2026-04-18 05:49 41.83875 111.45394 34809 ft 415 kts 337°
2026-04-18 05:50 41.89401 111.43139 34801 ft 415 kts 337°
2026-04-18 05:50 41.94935 111.40871 34781 ft 416 kts 337°
2026-04-18 05:51 42.00469 111.38602 34776 ft 416 kts 337°
2026-04-18 05:51 42.06005 111.36325 34760 ft 416 kts 337°
2026-04-18 05:52 42.11552 111.34046 34752 ft 417 kts 336°
2026-04-18 05:52 42.17103 111.31755 34743 ft 417 kts 336°
2026-04-18 05:53 42.22658 111.29464 34737 ft 418 kts 337°
2026-04-18 05:53 42.28225 111.27181 34720 ft 418 kts 337°
2026-04-18 05:54 42.33801 111.24895 34712 ft 419 kts 336°
2026-04-18 05:54 42.39378 111.22584 34698 ft 419 kts 336°
2026-04-18 05:55 42.44962 111.20274 34692 ft 420 kts 336°
2026-04-18 05:55 42.50556 111.17957 34680 ft 421 kts 336°
2026-04-18 05:56 42.56155 111.15633 34668 ft 421 kts 336°
2026-04-18 05:56 42.61763 111.13304 34661 ft 422 kts 336°
2026-04-18 05:57 42.70155 111.09808 34654 ft 423 kts 336°
2026-04-18 05:58 42.75783 111.07454 34647 ft 423 kts 336°
2026-04-18 05:58 42.81421 111.05096 34640 ft 424 kts 336°
2026-04-18 05:59 42.87065 111.02727 34633 ft 425 kts 336°
2026-04-18 05:59 42.92717 111.00350 34626 ft 425 kts 336°
2026-04-18 06:00 42.98375 110.97967 34630 ft 426 kts 336°
2026-04-18 06:00 43.04033 110.95571 34623 ft 426 kts 336°
2026-04-18 06:01 43.09702 110.93186 34618 ft 426 kts 336°
2026-04-18 06:01 43.15377 110.90794 34619 ft 427 kts 336°
2026-04-18 06:02 43.21000 110.88259 34618 ft 421 kts 329°
2026-04-18 06:02 43.26051 110.84397 34614 ft 415 kts 322°
2026-04-18 06:03 43.31023 110.80361 34611 ft 415 kts 322°
2026-04-18 06:03 43.35993 110.76315 34612 ft 415 kts 322°
2026-04-18 06:04 43.40962 110.72268 34616 ft 415 kts 322°
2026-04-18 06:04 43.45927 110.68225 34615 ft 415 kts 322°
2026-04-18 06:05 43.50853 110.64201 34618 ft 414 kts 322°
2026-04-18 06:05 43.55801 110.60139 34614 ft 414 kts 322°
2026-04-18 06:06 43.60755 110.56074 34611 ft 414 kts 322°
2026-04-18 06:06 43.65709 110.52016 34609 ft 414 kts 322°
2026-04-18 06:07 43.70662 110.47947 34607 ft 414 kts 322°
2026-04-18 06:07 43.75602 110.43860 34602 ft 414 kts 322°
2026-04-18 06:08 43.80551 110.39768 34606 ft 414 kts 322°
2026-04-18 06:08 43.85497 110.35674 34596 ft 414 kts 322°
2026-04-18 06:09 43.90450 110.31563 34598 ft 415 kts 322°
2026-04-18 06:09 43.95401 110.27451 34598 ft 415 kts 322°
2026-04-18 06:10 44.00354 110.23321 34595 ft 415 kts 321°
2026-04-18 06:10 44.05307 110.19183 34597 ft 416 kts 321°
2026-04-18 06:11 44.10263 110.15037 34596 ft 416 kts 321°
2026-04-18 06:11 44.15226 110.10878 34590 ft 416 kts 321°
2026-04-18 06:12 44.20186 110.06710 34586 ft 417 kts 321°
2026-04-18 06:12 44.25156 110.02527 34582 ft 417 kts 321°
2026-04-18 06:13 44.30126 109.98341 34580 ft 417 kts 321°
2026-04-18 06:13 44.35098 109.94141 34585 ft 418 kts 322°
2026-04-18 06:14 44.40073 109.89931 34582 ft 418 kts 321°
2026-04-18 06:14 44.45015 109.85736 34579 ft 418 kts 321°
2026-04-18 06:15 44.50024 109.81477 34579 ft 419 kts 322°
2026-04-18 06:15 44.55001 109.77244 34576 ft 419 kts 322°
2026-04-18 06:16 44.59982 109.72992 34575 ft 419 kts 322°
2026-04-18 06:16 44.64932 109.68765 34578 ft 419 kts 322°
2026-04-18 06:17 44.69908 109.64494 34585 ft 419 kts 322°
2026-04-18 06:17 44.74893 109.60209 34585 ft 419 kts 322°
2026-04-18 06:18 44.79873 109.55926 34580 ft 420 kts 322°
2026-04-18 06:18 44.84861 109.51638 34581 ft 420 kts 322°
2026-04-18 06:19 44.89845 109.47334 34580 ft 420 kts 322°
2026-04-18 06:19 44.94814 109.43038 34580 ft 420 kts 321°
2026-04-18 06:20 44.99797 109.38709 34577 ft 420 kts 322°
2026-04-18 06:20 45.04776 109.34380 34579 ft 420 kts 322°
2026-04-18 06:21 45.09753 109.30045 34579 ft 420 kts 321°
2026-04-18 06:21 45.14730 109.25703 34579 ft 420 kts 322°
2026-04-18 06:22 45.19706 109.21357 34580 ft 420 kts 321°
2026-04-18 06:22 45.24678 109.16998 34573 ft 420 kts 321°
2026-04-18 06:23 45.29654 109.12632 34572 ft 420 kts 321°
2026-04-18 06:23 45.34629 109.08265 34573 ft 420 kts 321°
2026-04-18 06:24 45.39601 109.03879 34572 ft 420 kts 321°
2026-04-18 06:24 45.44535 108.99515 34569 ft 420 kts 321°
2026-04-18 06:25 45.49500 108.95106 34566 ft 420 kts 321°
2026-04-18 06:25 45.54469 108.90701 34567 ft 421 kts 321°
2026-04-18 06:26 45.59444 108.86286 34558 ft 421 kts 321°
2026-04-18 06:26 45.64411 108.81862 34558 ft 421 kts 321°
2026-04-18 06:27 45.69380 108.77420 34559 ft 421 kts 321°
2026-04-18 06:27 45.74420 108.73129 34557 ft 427 kts 329°
2026-04-18 06:28 45.80173 108.70590 34556 ft 436 kts 339°
2026-04-18 06:28 45.86068 108.68494 34561 ft 437 kts 339°
2026-04-18 06:29 45.91967 108.66373 34558 ft 437 kts 339°
2026-04-18 06:29 45.97823 108.64257 34559 ft 437 kts 339°
2026-04-18 06:30 46.03716 108.62125 34563 ft 437 kts 339°
2026-04-18 06:30 46.09612 108.59990 34564 ft 437 kts 339°
2026-04-18 06:31 46.15513 108.57858 34444 ft 438 kts 339°
2026-04-18 06:31 46.17469 108.57148 34291 ft 438 kts 339°
2026-04-18 06:31 46.20427 108.56072 34044 ft 438 kts 339°
2026-04-18 06:31 46.24382 108.54632 33733 ft 438 kts 339°
2026-04-18 06:32 46.26336 108.53918 33578 ft 438 kts 339°
2026-04-18 06:32 46.29283 108.52839 33321 ft 436 kts 339°
2026-04-18 06:32 46.32219 108.51766 33039 ft 435 kts 339°
2026-04-18 06:32 46.35131 108.50647 32772 ft 430 kts 335°
2026-04-18 06:33 46.37866 108.49033 32502 ft 420 kts 326°
2026-04-18 06:33 46.40334 108.46865 32237 ft 411 kts 317°
2026-04-18 06:33 46.42568 108.44333 31975 ft 407 kts 315°
2026-04-18 06:33 46.44784 108.41786 31712 ft 406 kts 315°
2026-04-18 06:34 46.46991 108.39258 31452 ft 404 kts 315°
2026-04-18 06:34 46.49194 108.36738 31194 ft 402 kts 315°
2026-04-18 06:34 46.51389 108.34224 30946 ft 401 kts 315°
2026-04-18 06:34 46.53570 108.31720 30689 ft 399 kts 315°
2026-04-18 06:35 46.55734 108.29230 30330 ft 394 kts 315°
2026-04-18 06:35 46.57877 108.26765 29855 ft 391 kts 315°
2026-04-18 06:35 46.60007 108.24312 29351 ft 389 kts 315°
2026-04-18 06:35 46.62109 108.21882 28880 ft 384 kts 315°
2026-04-18 06:36 46.64191 108.19477 28417 ft 380 kts 315°
2026-04-18 06:36 46.66247 108.17097 27973 ft 376 kts 315°
2026-04-18 06:36 46.68278 108.14744 27524 ft 372 kts 315°
2026-04-18 06:36 46.70296 108.12409 27110 ft 368 kts 315°
2026-04-18 06:37 46.72289 108.10102 26687 ft 364 kts 315°
2026-04-18 06:37 46.74233 108.07845 26291 ft 360 kts 314°
2026-04-18 06:37 46.76207 108.05549 25886 ft 356 kts 314°
2026-04-18 06:37 46.78132 108.03306 25492 ft 353 kts 314°
2026-04-18 06:38 46.80039 108.01079 25091 ft 349 kts 314°
2026-04-18 06:38 46.81901 107.98903 24700 ft 346 kts 314°
2026-04-18 06:38 46.83756 107.96735 24298 ft 343 kts 314°
2026-04-18 06:38 46.85613 107.94561 23889 ft 341 kts 314°
2026-04-18 06:39 46.87456 107.92404 23484 ft 338 kts 314°
2026-04-18 06:39 46.89291 107.90258 23068 ft 337 kts 314°
2026-04-18 06:39 46.91114 107.88125 22603 ft 334 kts 314°
2026-04-18 06:39 46.92920 107.86012 22187 ft 331 kts 314°
2026-04-18 06:40 46.94710 107.83915 21777 ft 329 kts 314°
2026-04-18 06:40 46.96485 107.81829 21372 ft 326 kts 314°
2026-04-18 06:40 46.98251 107.79754 20973 ft 324 kts 314°
2026-04-18 06:40 47.00001 107.77695 20571 ft 322 kts 314°
2026-04-18 06:41 47.01739 107.75647 20171 ft 320 kts 314°
2026-04-18 06:41 47.03469 107.73601 19777 ft 319 kts 314°
2026-04-18 06:41 47.05188 107.71564 19382 ft 317 kts 314°
2026-04-18 06:41 47.06904 107.69535 18987 ft 316 kts 314°
2026-04-18 06:42 47.08689 107.67642 18596 ft 320 kts 323°
2026-04-18 06:42 47.10691 107.66160 18183 ft 323 kts 327°
2026-04-18 06:42 47.12718 107.64740 17767 ft 323 kts 327°
2026-04-18 06:42 47.14748 107.63305 17316 ft 323 kts 327°
2026-04-18 06:43 47.16765 107.61874 16901 ft 321 kts 328°
2026-04-18 06:43 47.18772 107.60449 16493 ft 320 kts 328°
2026-04-18 06:43 47.20769 107.59030 16095 ft 319 kts 328°
2026-04-18 06:43 47.22767 107.57612 15691 ft 318 kts 328°
2026-04-18 06:44 47.24759 107.56196 15292 ft 318 kts 328°
2026-04-18 06:44 47.26746 107.54782 14895 ft 317 kts 329°
2026-04-18 06:44 47.28731 107.53369 14495 ft 317 kts 329°
2026-04-18 06:44 47.30715 107.51958 14105 ft 316 kts 329°
2026-04-18 06:45 47.32662 107.50579 14018 ft 305 kts 329°
2026-04-18 06:45 47.34553 107.49238 13765 ft 300 kts 329°
2026-04-18 06:45 47.36410 107.47913 13409 ft 301 kts 330°
2026-04-18 06:45 47.38299 107.46561 12993 ft 302 kts 330°
2026-04-18 06:46 47.40188 107.45208 12600 ft 302 kts 330°
2026-04-18 06:46 47.42079 107.43853 12205 ft 302 kts 330°
2026-04-18 06:46 47.43966 107.42502 11811 ft 301 kts 330°
2026-04-18 06:46 47.45853 107.41150 11411 ft 302 kts 330°
2026-04-18 06:47 47.47738 107.39795 11018 ft 302 kts 330°
2026-04-18 06:47 47.49630 107.38435 10592 ft 302 kts 330°
2026-04-18 06:47 47.51519 107.37079 10170 ft 298 kts 330°
2026-04-18 06:47 47.53310 107.35687 9991 ft 286 kts 322°
2026-04-18 06:48 47.54773 107.33752 9857 ft 281 kts 307°
2026-04-18 06:48 47.55782 107.31330 9566 ft 274 kts 290°
2026-04-18 06:48 47.56337 107.28662 9346 ft 265 kts 283°
2026-04-18 06:48 47.56789 107.26095 9107 ft 249 kts 283°
2026-04-18 06:49 47.57219 107.23706 8909 ft 232 kts 283°
2026-04-18 06:49 47.57632 107.21430 8733 ft 227 kts 284°
2026-04-18 06:49 47.58036 107.19191 8560 ft 225 kts 283°
2026-04-18 06:49 47.58436 107.16976 8384 ft 220 kts 283°
2026-04-18 06:50 47.58828 107.14804 8209 ft 216 kts 283°
2026-04-18 06:50 47.59209 107.12691 8034 ft 208 kts 283°
2026-04-18 06:50 47.59576 107.10657 7929 ft 200 kts 283°
2026-04-18 06:50 47.59927 107.08706 7782 ft 193 kts 283°
2026-04-18 06:51 47.60269 107.06798 7538 ft 190 kts 283°
2026-04-18 06:51 47.60607 107.04916 7304 ft 188 kts 283°
2026-04-18 06:51 47.60941 107.03050 7065 ft 187 kts 282°
2026-04-18 06:51 47.61269 107.01221 6814 ft 178 kts 283°
2026-04-18 06:52 47.61573 106.99522 6606 ft 162 kts 283°
2026-04-18 06:52 47.61848 106.97983 6413 ft 149 kts 283°
2026-04-18 06:52 47.62110 106.96516 6235 ft 146 kts 282°
2026-04-18 06:52 47.62367 106.95074 6042 ft 144 kts 282°
2026-04-18 06:53 47.62622 106.93646 5853 ft 142 kts 283°
2026-04-18 06:53 47.62870 106.92249 5659 ft 139 kts 283°
2026-04-18 06:53 47.63119 106.90853 5464 ft 141 kts 281°
2026-04-18 06:53 47.63369 106.89446 5264 ft 141 kts 283°
2026-04-18 06:54 47.63621 106.88028 5052 ft 143 kts 283°
2026-04-18 06:54 47.63875 106.86607 4844 ft 144 kts 283°
2026-04-18 06:54 47.64124 106.85182 4668 ft 142 kts 284°
2026-04-18 06:54 47.64381 106.83770 4506 ft 136 kts 283°
2026-04-18 06:55 47.64586 106.82592 4492 ft 98 kts 284°
2026-04-18 06:55 47.64717 106.81850 4494 ft 49 kts 285°
2026-04-18 06:55 47.64793 106.81424 4493 ft 40 kts 286°
2026-04-18 06:55 47.64858 106.81060 4495 ft 23 kts 291°
2026-04-18 06:56 47.64924 106.80911 4493 ft 11 kts 307°
2026-04-18 06:56 47.64973 106.80816 4495 ft 12 kts 314°
2026-04-18 06:56 47.65049 106.80814 4496 ft 12 kts 39°
2026-04-18 06:56 47.65060 106.80916 4494 ft 10 kts 105°
2026-04-18 06:57 47.65044 106.81003 4495 ft 8 kts 104°
2026-04-18 06:57 47.65016 106.81160 4495 ft 11 kts 104°
2026-04-18 06:57 47.64992 106.81300 4493 ft 17 kts 104°
2026-04-18 06:58 47.64966 106.81459 4501 ft 14 kts 94°
2026-04-18 06:58 47.65002 106.81587 4501 ft 13 kts 60°
2026-04-18 06:58 47.65011 106.81709 4505 ft 13 kts 106°
2026-04-18 06:58 47.64986 106.81847 4502 ft 15 kts 105°
2026-04-18 06:59 47.64964 106.81987 4503 ft 9 kts 81°
2026-04-18 06:59 47.65003 106.82044 4503 ft 7 kts 36°
2026-04-18 06:59 47.65037 106.82080 4504 ft 2 kts 36°
2026-04-18 06:59 47.65040 106.82084 4504 ft 0 kts 36°